Flag for Australia Weather past 2 weeks in Lord Howe Island, Lord Howe Island, Australia

Now
64 °F

Mild.


Feels Like: 64 °F
Forecast: 65 / 67 °F
Wind: 5 mph from Northwest

Location: Lord Howe Island

Current Time: Jul 26, 2014 at 12:19:04 AM

Latest Report: Jul 25, 2014 at 10:30 PM


Visibility: N/A

Pressure: 30.39 "Hg

Humidity: 74%

Dew point: 56 °F

Location of Lord Howe IslandLocation

Historic Weather in Lord Howe Island — Graph

°F

Lord Howe Island temperature yesterday

Maximum temperature yesterday: 68 °F (at 3:00 PM)
Minimum temperature yesterday: 57 °F (at 6:00 AM)
Average temperature yesterday: 63 °F

Past Weeks' High & Low Weather Summary

 TemperatureHumidityPressure
High68 °F (Jul 25, 3:00 PM)95% (Jul 17, 6:00 AM)30.39 "Hg (Jul 17, 6:00 AM)
Low51 °F (Jul 23, 10:30 PM)42% (Jul 13, 10:30 PM)29.61 "Hg (Jul 18, 3:00 PM)
Average61 °F66%30.05 "Hg
* Reported Jul 10 10:30 PM — Jul 25 10:30 PM, Lord Howe Island, Weather by CustomWeather, © 2014

Note: Actual official high and low records may vary slightly from our data, if they occured in-between our weather recording intervals... More about our weather records

Advertising

Lord Howe Island weather history for previous 24 hours

 ConditionsComfort  
Time TempWeatherWind HumidityBarometerVisibility
10:30 PM
Jul 25
64 °FMild.5 mph74%30.39 "HgN/A
9:00 PM63 °FMild.2 mph76%30.37 "HgN/A
7:30 PM63 °FMild.5 mph75%30.36 "HgN/A
6:00 PM63 °FPassing clouds.3 mph74%30.34 "HgN/A
4:30 PM66 °FMild.6 mph65%30.32 "HgN/A
3:00 PM68 °FPassing clouds.6 mph61%30.31 "Hg19 mi
1:30 PM65 °FMild.9 mph70%30.33 "HgN/A
12:00 PM65 °FOvercast.7 mph61%30.35 "HgN/A
10:30 AM67 °FMild.7 mph55%30.38 "HgN/A
9:00 AM66 °FPassing clouds.7 mph54%30.37 "Hg19 mi
7:30 AM64 °FMild.7 mph57%30.34 "HgN/A
6:00 AM57 °FPassing clouds.No wind70%30.32 "Hg12 mi
4:30 AM62 °FCool.6 mph61%30.30 "HgN/A
3:00 AM62 °FRefreshingly cool.7 mph59%30.29 "HgN/A
1:30 AM61 °FCool.3 mph61%30.30 "HgN/A
12:00 AM59 °FCool.3 mph68%30.31 "HgN/A
Weather by CustomWeather, © 2014

See weather overviewHow to use our weather pages